Location: Unspecified
(44.0704°N, 88.6889°W)
Time: 22:22:46
(UTC+02:00)

Okean 3 - Pass Details

Date: 27 March 2019
Orbit: 576 x 602 km, 82.5° (Epoch: 19 April)

Event Time Altitude Azimuth Distance (km) Brightness Sun altitude
Exits shadow 11:35:45 - 206° (SSW) 1,980 5.8 -13.1°
Reaches altitude 10° 11:35:51 10° 207° (SSW) 1,940 5.7 -13.1°
Maximum altitude 11:40:01 48° 282° (WNW) 791 3.7 -12.4°
Drops below altitude 10° 11:44:12 10° 357° (N) 1,955 6.3 -11.7°
Sets 11:46:30 0° 4° (N) 2,862 7.2 -11.3°
